GFSFLT2_sfc_temp_282.txt.gz
Temp
47 48 53 62 62 63 62 61 59 59 62 61 60 59 60 62 62 62 63 63 64 65 65 65 64 64 64
43 47 49 60 61 61 61 62 62 57 60 59 59 58 59 59 59 59 60 61 61 62 63 63 64 64 64
36 43 47 51 58 59 60 60 61 55 58 58 58 58 58 58 58 58 58 58 59 59 60 61 62 63 63
37 40 44 48 52 55 56 58 57 58 56 58 58 56 56 57 57 56 56 57 58 58 58 57 57 59 61
37 38 40 44 45 55 56 55 56 57 56 57 58 59 58 56 56 53 54 56 57 57 57 57 56 57 58
36 36 38 41 45 45 53 53 51 57 56 55 57 57 58 58 57 55 54 56 56 56 56 56 55 55 56
36 38 39 42 43 43 44 52 55 54 57 54 55 55 58 57 54 53 53 55 54 55 54 54 54 54 54
39 40 41 43 43 44 44 45 47 54 58 53 54 55 57 58 53 53 52 53 53 54 53 53 52 52 52
42 43 43 44 43 41 40 42 43 49 55 55 52 54 55 55 55 52 52 52 53 53 53 52 51 51 51
39 41 43 43 44 42 41 39 42 41 52 48 45 44 39 41 51 52 53 52 52 52 52 52 50 51 48
38 39 41 42 42 44 44 42 42 41 48 48 37 36 37 35 36 49 52 51 53 51 51 51 50 50 47
36 37 38 39 41 43 45 46 47 47 50 49 36 45 36 34 36 34 43 50 51 50 50 51 50 50 50
35 36 38 40 40 40 42 43 45 47 49 49 41 43 45 36 35 35 40 36 46 44 45 46 43 43 40
35 36 37 36 36 38 37 39 39 41 35 42 42 43 38 37 38 37 35 36 38 42 43 38 39 42 40
34 34 35 35 35 37 37 37 36 38 36 33 34 39 40 37 38 42 39 35 40 38 39 36 36 38 37
32 33 33 34 34 35 36 36 36 38 40 34 34 34 35 37 39 41 40 38 38 37 39 37 33 33 36
30 31 33 33 34 34 34 35 36 37 40 37 38 40 38 39 32 39 39 36 35 36 37 37 36 33 35

GFSFLT2_sfc_temp_288.txt.gz
Temp
41 42 41 42 44 46 48 50 54 59 60 60 61 61 60 61 61 62 63 64 64 65 65 66 65 66 65
37 39 39 42 43 43 48 51 51 57 58 59 60 59 59 60 60 60 61 62 62 63 63 64 64 65 65
35 39 39 41 41 43 44 47 52 52 57 58 58 59 59 59 59 58 58 59 60 60 61 61 62 63 64
36 37 38 41 40 39 41 45 46 51 57 59 58 57 58 59 59 57 57 58 59 59 59 58 59 60 62
34 37 38 37 37 39 37 41 45 48 53 59 60 59 59 57 58 56 56 57 58 58 58 58 57 58 59
34 35 37 38 39 38 37 37 39 48 44 44 59 60 61 61 59 56 55 57 57 56 57 57 57 57 57
35 36 37 40 39 38 37 36 36 42 42 43 47 58 62 62 56 55 55 56 56 56 56 55 55 55 55
38 39 40 41 39 39 37 36 38 41 44 41 48 49 61 63 55 54 54 55 55 55 55 54 54 54 54
40 40 41 42 42 39 35 34 34 38 44 42 44 44 58 59 57 53 53 54 54 54 54 54 53 54 54
38 40 41 41 42 40 38 35 35 33 42 41 40 42 43 48 57 55 55 53 53 54 54 54 53 57 57
38 39 41 42 43 43 42 41 37 35 41 39 36 39 36 37 42 55 56 55 55 54 53 53 52 56 57
38 38 38 40 43 43 43 43 44 42 42 40 34 38 36 37 37 39 54 56 54 55 55 55 52 53 56
33 34 37 39 41 42 43 43 42 42 43 42 39 37 38 36 37 36 47 51 53 54 54 54 52 53 53
38 37 37 39 39 41 37 38 36 37 38 39 38 37 36 39 39 39 40 39 50 52 52 53 54 55 55
36 37 38 38 37 39 37 36 33 34 34 36 37 38 38 36 36 38 40 37 47 50 50 49 51 52 54
32 33 33 33 34 35 36 35 33 34 33 35 35 35 36 37 41 40 40 42 38 45 49 47 45 50 53
30 31 32 32 32 33 33 34 34 35 35 35 34 34 33 33 36 42 41 39 39 38 45 47 45 43 44

GFSFLT2_sfc_temp_291.txt.gz
Temp
39 41 40 40 41 43 45 45 48 50 51 52 59 61 60 61 62 62 62 63 64 65 66 66 66 66 66
35 36 37 41 40 40 44 46 46 49 51 51 52 60 61 60 60 61 61 62 62 63 64 65 65 65 66
32 36 37 40 39 40 41 42 47 49 50 51 52 57 60 60 59 59 60 60 60 60 61 62 63 63 64
32 33 35 39 40 37 38 42 41 47 49 49 52 56 59 59 58 58 56 58 59 59 59 59 59 61 62
31 32 33 35 37 39 37 39 40 44 45 45 46 57 58 57 57 54 55 57 58 58 58 58 58 58 60
30 30 33 36 39 38 37 36 34 44 39 40 45 47 55 60 58 56 55 56 56 57 57 57 57 57 58
30 32 34 37 38 36 37 37 35 37 36 37 43 44 50 58 56 55 54 56 55 55 55 56 56 56 56
34 34 37 39 39 39 37 36 38 38 38 34 42 44 48 49 54 54 54 54 55 55 55 55 55 55 54
39 39 40 41 41 38 34 33 32 36 38 37 40 41 47 48 55 54 54 54 55 55 55 55 54 54 54
36 38 40 39 40 38 36 33 33 32 39 35 39 39 36 44 44 55 55 53 54 54 55 54 53 57 58
35 36 37 38 39 40 39 37 34 33 41 38 33 35 34 36 38 43 52 56 56 55 53 54 53 57 57
34 34 35 37 38 40 41 40 40 39 42 40 33 34 32 33 35 39 45 45 56 56 56 56 53 53 57
32 33 36 38 40 37 39 41 40 41 42 41 38 34 33 32 33 36 39 42 49 55 55 55 55 55 55
34 35 36 35 35 36 35 35 34 32 34 36 36 36 33 32 34 35 38 36 43 52 53 54 55 55 56
33 34 34 34 34 35 34 31 32 33 32 33 35 36 36 34 32 34 37 38 41 42 50 50 52 53 55
30 31 31 32 32 32 33 32 31 32 32 33 33 33 33 35 37 34 36 37 40 41 42 48 48 52 54
28 29 30 31 31 30 31 32 32 32 33 32 32 32 30 30 34 39 36 38 36 39 38 38 46 48 51

GFSFLT2_sfc_temp_297.txt.gz
Temp
31 33 32 32 34 35 37 38 38 44 47 48 49 50 51 51 52 53 55 65 65 66 66 66 66 66 67
28 29 30 32 32 33 36 39 38 43 45 47 48 49 51 51 51 52 52 60 63 64 64 65 65 65 66
26 29 30 32 31 33 34 35 39 43 46 48 49 49 50 51 51 51 50 52 60 60 61 63 63 64 65
26 27 28 30 30 29 30 34 35 42 44 46 47 48 48 50 50 48 49 51 55 60 59 59 60 62 63
25 26 26 27 27 30 29 31 34 38 38 42 44 44 45 48 48 48 49 49 53 59 59 59 59 60 61
25 24 26 27 29 29 29 28 29 36 36 36 39 39 43 46 48 48 48 48 49 57 58 59 58 58 59
26 27 27 29 29 28 29 29 28 33 35 33 37 36 42 45 47 48 48 48 48 48 55 56 56 57 57
32 30 30 31 30 30 30 30 31 34 37 30 35 35 40 42 46 47 47 48 48 49 53 55 55 55 56
37 38 38 38 37 32 28 28 28 31 35 32 33 34 38 39 43 47 46 47 47 49 51 54 55 55 55
32 35 37 37 39 35 32 28 29 28 33 30 31 34 32 40 43 43 45 46 46 47 51 53 54 57 59
30 31 32 32 32 33 34 32 30 29 34 34 32 33 32 33 34 40 41 42 44 46 47 52 53 57 58
30 29 30 31 32 33 34 35 35 33 36 37 32 33 32 32 32 34 38 40 43 42 44 49 52 54 57
30 29 31 32 33 33 35 35 35 36 38 37 34 34 33 32 32 32 33 34 38 39 41 43 45 54 55
28 29 31 31 30 32 31 33 32 33 35 35 36 35 33 33 32 32 33 32 35 37 38 40 43 45 55
26 27 28 30 30 31 31 31 30 31 32 34 34 35 34 33 32 33 33 33 34 34 35 35 39 43 48
26 26 26 27 27 30 32 31 31 32 31 25 24 31 32 34 36 32 33 33 34 33 33 33 35 41 45
24 25 26 26 27 27 27 28 29 28 26 26 30 30 28 26 32 38 32 33 33 32 33 33 35 39 43